This is the latest recevied weather packets stored in our database for station/object EA1IDU-11. If no packets are shown the sender has not sent any weather packets the latest 10 day(s).
| Time | Temp. | Humidity | Pressure | Rain* | Wind** | Luminosity | Snow |
|---|---|---|---|---|---|---|---|
| 1777498931 | 13.89° C | 57% | 1021.3 hPa | - | - | - | - |
| 1777498031 | 13.89° C | 57% | 1021.4 hPa | - | - | - | - |
| 1777497131 | 13.89° C | 56% | 1021.1 hPa | - | - | - | - |
| 1777496231 | 13.89° C | 56% | 1021.3 hPa | - | - | - | - |
| 1777495331 | 13.89° C | 56% | 1021 hPa | - | - | - | - |
| 1777494430 | 13.89° C | 56% | 1020.9 hPa | - | - | - | - |
| 1777493530 | 14.44° C | 55% | 1020.7 hPa | - | - | - | - |
| 1777492630 | 14.44° C | 55% | 1020.7 hPa | - | - | - | - |
| 1777491730 | 14.44° C | 55% | 1020.4 hPa | - | - | - | - |
| 1777490830 | 15° C | 54% | 1019.7 hPa | - | - | - | - |
| 1777489930 | 15.56° C | 54% | 1019.5 hPa | - | - | - | - |
| 1777489030 | 16.67° C | 53% | 1018.6 hPa | - | - | - | - |
| 1777488130 | 17.78° C | 52% | 1018.7 hPa | - | - | - | - |
| 1777487230 | 18.33° C | 52% | 1018.7 hPa | - | - | - | - |
| 1777486329 | 20° C | 52% | 1018.8 hPa | - | - | - | - |
| 1777485429 | 21.67° C | 54% | 1018.1 hPa | - | - | - | - |
| 1777484529 | 22.22° C | 54% | 1017.6 hPa | - | - | - | - |
| 1777483629 | 23.33° C | 53% | 1017.6 hPa | - | - | - | - |
| 1777482729 | 24.44° C | 54% | 1017.4 hPa | - | - | - | - |
| 1777481829 | 25° C | 54% | 1017.2 hPa | - | - | - | - |
| 1777480929 | 26.11° C | 53% | 1017.3 hPa | - | - | - | - |
| 1777480029 | 25.56° C | 54% | 1017.2 hPa | - | - | - | - |
| 1777479129 | 25.56° C | 54% | 1017 hPa | - | - | - | - |
| 1777478229 | 23.89° C | 55% | 1017.2 hPa | - | - | - | - |
| 1777477329 | 23.33° C | 55% | 1017.1 hPa | - | - | - | - |
* Rain since midnight (hover to see other rain measurements)
** Current wind speed in m/s (hover to see current wind gust speed)